Location: Park Creek Village Mobile Home Park
(38.2885°N, 122.4714°W)
Time: 05:26:50
(UTC+00:00)

Cosmos 2026 Rocket - Pass Details

Date: 14 December 2019
Orbit: 940 x 1000 km, 82.9° (Epoch: 28 January)

Event Time Altitude Azimuth Distance (km) Brightness Sun altitude
Exits shadow 12:58:43 - 356° (N) 2,857 6.3 -26.6°
Reaches altitude 10° 12:59:06 10° 356° (N) 2,714 6.2 -26.6°
Maximum altitude 13:05:19 77° 82° (E) 1,007 4.1 -25.4°
Drops below altitude 10° 13:11:37 10° 169° (S) 2,738 6.6 -24.1°
Sets 13:14:08 0° 171° (S) 3,689 7.3 -23.7°
